TimeEDT,TemperatureF,Dew PointF,Humidity,Sea Level PressureIn,VisibilityMPH,Wind Direction,Wind SpeedMPH,Gust SpeedMPH,PrecipitationIn,Events,Conditions,WindDirDegrees,DateUTC
12:53 AM,57.0,45.0,64,29.88,10.0,SSW,11.5,-,N/A,,Scattered Clouds,210,2013-03-18 04:53:00
1:53 AM,55.0,45.0,69,29.88,10.0,SSW,9.2,-,N/A,,Scattered Clouds,210,2013-03-18 05:53:00
2:53 AM,57.0,46.0,67,29.87,10.0,South,9.2,-,N/A,,Scattered Clouds,180,2013-03-18 06:53:00
3:53 AM,55.9,46.0,69,29.86,10.0,WSW,5.8,-,N/A,,Scattered Clouds,250,2013-03-18 07:53:00
4:53 AM,55.9,46.9,72,29.83,10.0,West,5.8,-,N/A,,Mostly Cloudy,270,2013-03-18 08:53:00
5:53 AM,57.0,48.0,72,29.83,10.0,West,3.5,-,N/A,,Overcast,260,2013-03-18 09:53:00
6:53 AM,54.0,46.0,75,29.83,10.0,Calm,Calm,-,N/A,,Overcast,0,2013-03-18 10:53:00
7:53 AM,53.1,46.9,80,29.84,10.0,East,3.5,-,0.00,,Mostly Cloudy,80,2013-03-18 11:53:00
8:53 AM,61.0,50.0,67,29.81,10.0,SSW,8.1,-,N/A,,Mostly Cloudy,200,2013-03-18 12:53:00
9:53 AM,63.0,51.1,65,29.81,10.0,SSW,9.2,-,N/A,,Overcast,200,2013-03-18 13:53:00
10:53 AM,64.0,51.1,63,29.82,10.0,SW,15.0,-,0.00,Rain,Light Rain,220,2013-03-18 14:53:00
11:53 AM,66.0,51.1,59,29.78,10.0,SSW,13.8,-,0.01,,Mostly Cloudy,200,2013-03-18 15:53:00
12:18 PM,64.4,48.2,56,29.80,10.0,SSW,11.5,-,N/A,Thunderstorm,Thunderstorm,210,2013-03-18 16:18:00
12:53 PM,61.0,48.9,64,29.80,10.0,West,16.1,-,0.00,Rain-Thunderstorm,Light Thunderstorms and Rain,280,2013-03-18 16:53:00
1:18 PM,57.2,51.8,82,29.79,5.0,SW,12.7,-,0.09,Rain-Thunderstorm,Thunderstorms and Rain,220,2013-03-18 17:18:00
1:42 PM,57.2,51.8,82,29.80,7.0,West,10.4,-,0.14,Rain-Thunderstorm,Light Thunderstorms and Rain,260,2013-03-18 17:42:00
1:53 PM,57.9,53.1,84,29.78,7.0,West,8.1,-,0.14,Rain-Thunderstorm,Light Thunderstorms and Rain,270,2013-03-18 17:53:00
2:07 PM,59.0,53.6,82,29.78,10.0,WNW,4.6,-,0.00,,Overcast,290,2013-03-18 18:07:00
2:43 PM,60.8,53.6,77,29.77,10.0,WSW,13.8,23.0,0.01,Rain-Thunderstorm,Light Thunderstorms and Rain,240,2013-03-18 18:43:00
2:53 PM,59.0,53.1,81,29.77,3.0,WSW,18.4,24.2,0.04,Rain-Thunderstorm,Thunderstorms and Rain,250,2013-03-18 18:53:00
3:24 PM,57.2,53.6,88,29.79,8.0,West,12.7,-,0.04,Rain,Light Rain,280,2013-03-18 19:24:00
3:53 PM,57.9,54.0,87,29.81,6.0,NW,13.8,-,0.07,Rain,Light Rain,310,2013-03-18 19:53:00
3:59 PM,57.2,53.6,88,29.81,1.5,NW,18.4,26.5,0.00,Rain,Heavy Rain,310,2013-03-18 19:59:00
4:02 PM,57.2,53.6,88,29.82,1.5,NNW,17.3,26.5,0.04,Rain,Heavy Rain,330,2013-03-18 20:02:00
4:09 PM,55.4,51.8,88,29.82,2.5,NW,11.5,25.3,0.09,Rain,Light Rain,320,2013-03-18 20:09:00
4:18 PM,53.6,50.0,88,29.82,1.0,WNW,16.1,27.6,0.12,Rain-Thunderstorm,Thunderstorms and Rain,300,2013-03-18 20:18:00
4:38 PM,53.6,51.8,94,29.83,2.0,West,11.5,20.7,0.33,Rain,Rain,280,2013-03-18 20:38:00
4:41 PM,53.6,51.8,94,29.82,2.0,West,10.4,20.7,0.33,Rain-Thunderstorm,Thunderstorms and Rain,270,2013-03-18 20:41:00
4:53 PM,53.1,51.1,93,29.83,2.0,West,5.8,-,0.36,Rain-Thunderstorm,Light Thunderstorms and Rain,260,2013-03-18 20:53:00
5:30 PM,53.6,51.8,94,29.81,2.0,ESE,10.4,-,0.11,Rain-Thunderstorm,Thunderstorms and Rain,120,2013-03-18 21:30:00
5:53 PM,53.1,51.1,93,29.79,2.0,SE,17.3,21.9,0.18,Rain-Thunderstorm,Thunderstorms and Rain,130,2013-03-18 21:53:00
5:58 PM,53.6,51.8,94,29.81,4.0,SSE,11.5,21.9,0.01,Rain-Thunderstorm,Light Thunderstorms and Rain,150,2013-03-18 21:58:00
6:07 PM,53.6,51.8,94,29.81,7.0,SSE,9.2,-,0.01,Rain,Light Rain,160,2013-03-18 22:07:00
6:53 PM,54.0,51.1,90,29.79,10.0,SSW,4.6,-,0.02,,Scattered Clouds,200,2013-03-18 22:53:00
7:53 PM,53.1,50.0,89,29.76,10.0,West,3.5,-,0.00,,Clear,280,2013-03-18 23:53:00
8:53 PM,52.0,50.0,93,29.78,10.0,WNW,5.8,-,N/A,,Clear,290,2013-03-19 00:53:00
9:53 PM,52.0,50.0,93,29.78,10.0,West,3.5,-,N/A,,Mostly Cloudy,260,2013-03-19 01:53:00
10:53 PM,52.0,50.0,93,29.81,10.0,SSW,3.5,-,N/A,,Overcast,200,2013-03-19 02:53:00
11:53 PM,53.1,50.0,89,29.82,10.0,SW,9.2,-,0.00,Rain,Light Rain,230,2013-03-19 03:53:00